Location: �A�n Sefra
(34.9681°N, 0.4346°E)
Time: 01:59:20
(UTC+00:00)

Cosmos 1943 Rocket - Pass Details

Date: 21 October 2019
Orbit: 810 x 845 km, 71.0° (Epoch: 22 November)

Event Time Altitude Azimuth Distance (km) Brightness Sun altitude
Rises 19:51:17 0° 202° (SSW) 3,329 5.4 -32.4°
Reaches altitude 10° 19:53:41 10° 204° (SSW) 2,405 4.7 -32.8°
Enters shadow 19:54:26 14° 204° (SSW) 2,126 4.4 -33.0°
